"Pseudo-MPEC" for C0V8WJ5

Created 2024 Dec 9 19:31:02 UT using Find_Orb

Click here for an explanation of pseudo-MPECs

 
 Astrometry: 
     C0V8WJ5* C2024 11 26.27070302 01 27.181+46 38 21.12   ~BQ7V 22.48GVNEOCPV00
     C0V8WJ5  C2024 11 26.27630302 01 25.756+46 38 30.08   ~BQ7V 22.43GVNEOCPV00
     C0V8WJ5  C2024 11 26.28192202 01 24.341+46 38 38.94   ~BQ7V 22.51GVNEOCPV00
     C0V8WJ5  C2024 11 26.34337002 01 08.680+46 40 16.60   ~BQAV       VNEOCP291
     C0V8WJ5  C2024 11 26.37411002 01 00.890+46 41 05.10   ~BQAV       VNEOCP291

Station data:
(291) LPL/Spacewatch II  (N31.961669 W111.599905)  US/Arizona.  Observers J.
   V. Scotti, R. S. McMillan. 1.8-m f/2.7 reflector + CCD.
(V00) Kitt Peak-Bok  (N31.963125 W111.600190)  US/Arizona.  Observers T. A.
   Pruyne, B. M. Africano, E. J. Christensen, G. A. Farneth, D. C. Fuls, A.
   R. Gibbs, A. D. Grauer, H. Gröller, J. A. Johnson, R. A. Kowalski, S. M.
   Larson, G. J. Leonard, D. Rankin, R. L. Seaman, F. C. Shelly, K. W.
   Wierzchoś. 2.25-m reflector + 4x4K mosaic CCD.

Orbital elements:  C0V8WJ5
   Perihelion 2024 Sep 18.06098 +/- 66.3 TT =  1:27:49 (JD 2460571.56098)
Epoch 2024 Nov 26.0 TT = JDT 2460640.5   Earth MOID: 0.2238      AutoNEOCP
M   7.49509128 +/- 29               (J2000 ecliptic)
n   0.10872060 +/- 0.189            Peri.  305.64103 +/- 90
a   4.34771918 +/- 5.04             Node    48.63492 +/- 28
e   0.7639042 +/- 0.278             Incl.   47.52315 +/- 16
P   9.06551                H 22.36  G  0.15   U 11.6  SR
q 1.02647801 +/- 0.322    Q 7.66896034 +/- 39.1
From 5 observations 2024 Nov. 26 (2.5 hr); mean residual 0".15
Residuals in arcseconds: 
241126 V00  .18-  .11+    241126 V00  .20+  .12-    241126 291  .15-  .13+    
241126 V00  .06-  .05+    241126 291  .19+  .16-    

Ephemerides (geocentric):
Date (UTC) HH   RA             Dec           delta  r     elong  mag " sig PA
---- --------  ------------   ------------  ------ ------ -----  --- --------
2024 12 09 20  01 25 13.636   +50 07 05.53  .72401 1.5480 129.2 23.9 292'  76
2024 12 09 21  01 25 10.026   +50 07 25.72  .72473 1.5484 129.2 23.9 295'  76
2024 12 09 22  01 25 06.430   +50 07 45.84  .72545 1.5488 129.2 23.9 298'  76
2024 12 09 23  01 25 02.851   +50 08 05.90  .72618 1.5492 129.1 23.9 301'  76
2024 12 10 00  01 24 59.286   +50 08 25.89  .72690 1.5496 129.1 23.9 304'  77
2024 12 10 01  01 24 55.736   +50 08 45.82  .72763 1.5500 129.1 23.9 308'  77
2024 12 10 02  01 24 52.202   +50 09 05.69  .72835 1.5503 129.0 23.9 311'  77
2024 12 10 03  01 24 48.683   +50 09 25.50  .72907 1.5507 129.0 23.9 314'  77
2024 12 10 04  01 24 45.178   +50 09 45.25  .72980 1.5511 129.0 23.9 317'  78
2024 12 10 05  01 24 41.689   +50 10 04.94  .73052 1.5515 128.9 23.9 320'  78
2024 12 10 06  01 24 38.215   +50 10 24.56  .73125 1.5519 128.9 23.9 324'  78
2024 12 10 07  01 24 34.755   +50 10 44.12  .73197 1.5523 128.8 23.9 327'  78
2024 12 10 08  01 24 31.311   +50 11 03.63  .73270 1.5527 128.8 23.9 330'  79
2024 12 10 09  01 24 27.881   +50 11 23.07  .73342 1.5531 128.8 23.9 334'  79
2024 12 10 10  01 24 24.467   +50 11 42.45  .73415 1.5535 128.7 23.9 337'  79
2024 12 10 11  01 24 21.067   +50 12 01.78  .73487 1.5539 128.7 23.9 340'  80
2024 12 10 12  01 24 17.682   +50 12 21.04  .73560 1.5543 128.7 23.9 344'  80
2024 12 10 13  01 24 14.312   +50 12 40.25  .73633 1.5547 128.6 23.9 347'  80
2024 12 10 14  01 24 10.956   +50 12 59.39  .73705 1.5551 128.6 23.9 350'  80
2024 12 10 15  01 24 07.616   +50 13 18.48  .73778 1.5555 128.6 23.9 354'  81
2024 12 10 16  01 24 04.290   +50 13 37.51  .73851 1.5559 128.5 24.0 357'  81
2024 12 10 17  01 24 00.978   +50 13 56.48  .73923 1.5563 128.5 24.0 360'  81
2024 12 10 18  01 23 57.682   +50 14 15.39  .73996 1.5567 128.4 24.0 364'  82
2024 12 10 19  01 23 54.400   +50 14 34.25  .74069 1.5571 128.4 24.0 367'  82
2024 12 10 20  01 23 51.132   +50 14 53.05  .74141 1.5575 128.4 24.0 371'  82
2024 12 10 21  01 23 47.879   +50 15 11.79  .74214 1.5579 128.3 24.0 374'  82
2024 12 10 22  01 23 44.641   +50 15 30.48  .74287 1.5583 128.3 24.0 378'  83
2024 12 10 23  01 23 41.417   +50 15 49.11  .74360 1.5587 128.3 24.0 381'  83
2024 12 11 00  01 23 38.207   +50 16 07.68  .74432 1.5591 128.2 24.0 385'  83
2024 12 11 01  01 23 35.012   +50 16 26.20  .74505 1.5595 128.2 24.0 388'  84
2024 12 11 02  01 23 31.832   +50 16 44.66  .74578 1.5599 128.2 24.0 392'  84
2024 12 11 03  01 23 28.666   +50 17 03.06  .74651 1.5603 128.1 24.0 395'  84
2024 12 11 04  01 23 25.514   +50 17 21.41  .74724 1.5607 128.1 24.0 399'  85
2024 12 11 05  01 23 22.376   +50 17 39.71  .74797 1.5611 128.1 24.0 402'  85
2024 12 11 06  01 23 19.253   +50 17 57.95  .74869 1.5615 128.0 24.0 405'  85
2024 12 11 07  01 23 16.144   +50 18 16.14  .74942 1.5619 128.0 24.0 409'  86
2024 12 11 08  01 23 13.050   +50 18 34.27  .75015 1.5623 127.9 24.0 412'  86
2024 12 11 09  01 23 09.969   +50 18 52.35  .75088 1.5627 127.9 24.0 416'  86
2024 12 11 10  01 23 06.903   +50 19 10.38  .75161 1.5631 127.9 24.0 419'  87
2024 12 11 11  01 23 03.851   +50 19 28.35  .75234 1.5635 127.8 24.0 423'  87
2024 12 11 12  01 23 00.813   +50 19 46.27  .75307 1.5639 127.8 24.0 426'  87
2024 12 11 13  01 22 57.789   +50 20 04.14  .75380 1.5643 127.8 24.0 430'  88
2024 12 11 14  01 22 54.779   +50 20 21.95  .75453 1.5647 127.7 24.0 433'  88
2024 12 11 15  01 22 51.784   +50 20 39.71  .75526 1.5651 127.7 24.0 437'  88
2024 12 11 16  01 22 48.802   +50 20 57.42  .75599 1.5655 127.7 24.0 440'  89
2024 12 11 17  01 22 45.834   +50 21 15.08  .75672 1.5659 127.6 24.0 444'  89
2024 12 11 18  01 22 42.880   +50 21 32.68  .75745 1.5663 127.6 24.0 447'  89
2024 12 11 19  01 22 39.941   +50 21 50.24  .75818 1.5667 127.6 24.0 451'  90